Wind_Speed
46 47 48 49 50 50 50 51 51 50 50 50 50 51 51 51 50 50 50 50 50 49 49 48 48 47 46 45 44 42 41 41 42 43 44 44 43 42 40 38 36 35 34 33 32 31 30 29 30 30 30 29 27 26 27 28 28 28 27 27 26 26 25 25 25 24 24 24 24
45 46 48 49 49 50 51 51 51 51 51 51 51 51 51 51 50 50 50 50 49 48 47 47 46 45 45 43 42 41 41 40 40 41 43 44 43 42 40 38 36 35 34 33 32 31 31 30 31 31 30 28 26 26 27 28 28 28 27 27 26 26 26 25 25 25 24 24 24
43 45 46 47 48 49 50 50 51 51 51 51 50 50 51 51 50 50 49 49 47 47 46 46 45 44 43 42 41 40 40 39 39 40 42 43 43 42 40 38 36 34 33 32 32 32 31 31 32 31 29 27 25 26 27 28 28 28 27 27 27 26 26 26 26 25 25 24 24
41 43 44 45 46 47 48 49 49 50 50 50 50 50 50 50 50 49 48 47 47 46 46 45 44 43 42 41 40 39 38 38 38 40 41 42 43 42 40 38 36 34 33 33 32 32 32 32 32 30 28 26 25 26 28 29 28 28 27 27 27 27 27 27 26 26 25 25 25
40 41 42 43 44 45 46 47 48 49 49 49 49 50 50 50 49 49 48 47 47 46 45 44 43 43 42 41 40 39 38 38 38 39 41 42 43 42 40 38 36 34 34 33 33 33 33 33 32 29 27 26 26 27 28 28 28 28 27 27 27 27 27 27 27 26 26 25 25
37 39 40 41 42 43 44 45 46 47 47 48 49 49 49 49 49 48 47 47 46 45 44 43 43 42 41 40 40 39 39 39 39 40 41 42 42 42 40 38 35 34 34 34 34 34 34 33 31 28 26 26 27 28 28 28 28 27 27 27 28 28 28 28 27 27 26 25 25
35 36 38 39 40 41 42 43 44 45 46 47 47 48 47 47 47 47 46 45 44 44 43 43 42 42 41 40 40 39 39 39 39 40 40 41 42 41 40 37 36 35 35 35 34 34 34 33 30 28 26 27 28 28 28 28 27 27 27 28 28 28 28 28 28 27 26 25 25
32 34 35 36 37 39 40 40 41 43 44 46 46 46 46 46 45 45 44 44 44 43 43 42 42 41 41 40 40 39 39 39 39 39 40 41 41 41 40 37 36 35 35 35 35 35 34 32 29 27 27 27 28 29 28 27 27 27 27 28 28 28 28 28 28 27 26 25 25
29 30 32 33 34 35 36 37 38 40 41 42 43 44 44 44 44 44 44 44 43 42 42 42 41 41 41 40 40 40 39 39 39 39 40 40 41 41 40 38 37 36 36 36 36 35 34 31 29 28 28 28 28 28 28 27 27 27 27 28 28 28 29 29 28 27 26 25 25
25 26 28 29 31 32 33 35 36 37 38 39 40 41 42 43 43 43 43 42 42 41 41 41 40 40 41 40 40 39 39 38 38 39 39 40 41 41 40 39 38 37 37 36 36 35 33 31 29 28 28 28 28 28 27 27 27 27 27 28 28 28 29 29 28 27 27 26 25
21 22 24 25 27 29 31 33 34 35 36 37 38 38 39 40 41 41 41 41 41 42 41 40 40 40 40 40 40 39 38 38 38 38 39 40 41 41 41 40 38 38 37 37 36 35 33 31 30 29 28 28 28 28 27 27 27 27 27 28 28 28 29 29 28 28 27 26 26
17 18 20 21 23 25 27 29 31 32 34 35 35 36 37 38 38 38 39 39 41 41 40 39 39 40 40 39 39 38 38 37 37 37 38 40 41 42 41 40 39 38 37 36 35 34 33 31 30 29 28 28 28 28 28 28 28 28 28 27 27 28 28 29 28 28 27 26 26
16 16 17 17 18 20 22 24 26 28 30 31 32 33 34 35 35 35 36 37 38 38 38 37 38 38 38 38 38 37 37 37 36 37 38 40 41 42 42 41 39 38 37 36 35 34 33 32 31 29 28 28 28 28 28 28 28 28 27 27 27 28 28 28 28 27 27 26 26
14 14 14 14 15 16 17 19 21 23 24 26 27 29 30 31 32 32 33 34 34 34 34 35 35 35 36 36 36 36 36 36 36 37 38 39 41 42 42 41 40 38 37 35 35 34 33 32 31 29 28 28 28 28 28 28 28 28 27 27 27 28 28 28 28 27 26 26 26
13 12 12 12 12 13 13 15 16 17 19 20 21 23 25 27 28 28 29 29 29 30 30 31 32 33 33 34 35 35 36 37 37 38 39 40 41 42 42 41 40 38 36 35 34 34 34 32 30 29 28 28 28 28 28 28 28 27 27 27 27 28 28 28 27 27 26 26 26
12 11 11 11 11 12 12 13 14 14 15 16 16 17 19 21 22 24 25 26 26 26 27 28 29 30 32 33 35 36 37 38 39 39 40 40 41 42 42 41 40 38 36 35 35 35 34 32 30 29 29 28 28 28 28 28 28 27 27 26 27 28 28 28 27 27 26 26 25
12 11 11 11 11 12 13 14 15 16 16 16 15 15 17 19 20 21 22 23 24 24 24 25 27 29 31 33 35 37 38 39 40 40 40 40 41 41 41 40 39 37 36 35 36 35 34 32 31 29 29 29 29 29 29 28 28 27 27 26 27 28 28 28 27 27 26 26 25
14 14 14 14 14 14 15 16 18 20 21 21 21 21 22 24 23 22 21 23 24 24 24 25 28 30 32 33 35 37 38 39 39 39 39 39 39 40 40 39 38 37 37 36 36 35 34 32 31 30 29 29 29 29 29 29 28 27 27 27 27 28 28 28 27 27 26 26 25
19 20 21 21 21 21 21 21 23 25 27 29 30 30 31 31 30 27 24 24 25 26 26 27 29 31 32 33 35 36 37 38 38 38 38 38 38 38 38 38 38 38 37 37 36 35 33 32 31 30 30 30 30 30 29 29 28 27 27 27 27 28 28 28 27 27 26 25 25
24 25 26 27 27 27 26 26 26 27 30 32 34 36 37 37 37 33 29 26 27 28 29 29 30 31 32 33 34 34 35 35 36 36 36 36 36 36 37 38 38 38 38 37 36 35 33 32 31 31 31 30 30 30 30 29 28 27 27 27 28 28 28 28 27 26 25 25 24
26 27 28 29 29 29 28 28 27 28 29 31 33 35 36 37 38 35 32 29 28 29 30 31 31 32 32 32 33 33 33 33 33 34 34 33 34 35 36 38 39 39 38 37 36 35 33 33 32 31 31 31 31 30 30 29 28 27 27 27 28 28 28 27 27 26 25 25 25
27 27 28 29 29 29 29 28 28 28 29 30 31 33 34 35 35 34 33 31 30 29 30 30 31 31 32 31 31 30 30 31 31 31 31 31 32 34 36 38 39 39 39 37 36 35 34 33 32 32 31 31 31 31 30 29 28 27 27 27 28 28 28 27 26 26 25 25 25
28 28 29 29 29 29 29 29 29 29 30 30 31 32 33 33 33 33 32 31 30 29 29 30 30 31 31 30 29 29 28 29 29 29 29 30 31 33 36 38 39 40 39 38 36 35 34 33 32 32 32 31 31 31 30 29 28 27 27 27 27 28 27 27 26 26 25 25 25
29 29 29 30 30 30 30 30 30 30 31 31 31 32 32 32 32 31 30 29 29 29 29 29 30 30 29 29 28 28 27 28 28 28 29 29 31 33 35 38 40 40 39 38 36 35 34 33 32 32 32 32 31 31 30 29 28 27 27 27 27 27 27 27 26 26 25 25 25
30 30 30 30 30 30 30 30 30 30 31 31 31 31 31 31 30 29 29 28 28 28 28 28 29 28 28 28 28 28 28 28 29 29 30 30 31 33 35 38 40 40 39 38 36 34 33 33 32 32 32 32 31 31 30 29 28 27 26 26 27 27 27 27 26 26 26 26 26
30 30 30 30 30 30 30 30 30 30 30 30 30 30 29 29 29 28 28 27 27 27 27 27 27 27 27 28 28 28 29 29 30 30 30 31 31 33 35 38 40 40 39 37 35 34 33 32 32 32 32 32 31 31 30 28 27 26 26 26 26 27 27 27 27 26 26 26 26
30 30 30 30 30 30 30 30 30 30 29 29 29 29 29 28 28 28 27 27 26 25 25 26 26 27 27 28 29 30 30 30 30 30 31 31 31 33 35 37 39 40 39 37 34 33 32 32 32 32 32 32 31 30 29 28 27 26 26 26 26 27 27 27 27 26 26 26 26
29 29 29 29 29 30 30 30 30 30 29 29 29 29 28 28 27 27 26 25 25 24 25 25 26 26 28 29 30 31 31 31 31 31 31 31 31 33 34 37 38 39 38 36 33 32 31 31 32 32 32 32 31 30 28 27 26 26 26 26 26 27 27 27 27 26 26 26 26
29 29 29 29 29 29 29 29 29 29 29 29 28 28 27 27 27 26 25 25 24 25 25 26 26 27 28 30 31 31 31 31 31 31 31 31 32 32 34 36 37 38 37 34 32 31 31 31 32 32 33 32 31 29 28 27 26 26 26 26 26 27 27 27 26 26 26 26 26
29 29 29 29 29 28 28 28 28 28 28 28 28 28 27 26 26 25 25 25 25 25 25 25 26 28 29 30 30 30 31 31 30 30 31 32 32 33 34 35 37 37 36 34 32 31 31 32 32 33 33 32 31 29 28 27 26 26 26 26 26 26 26 27 26 26 26 26 26
30 29 29 29 29 29 28 28 28 28 28 28 27 27 27 26 26 25 25 25 25 25 25 26 27 28 29 29 29 30 31 30 30 31 31 32 32 33 34 35 36 36 35 33 32 31 31 32 32 32 32 32 31 29 28 26 26 26 26 26 26 26 26 26 26 25 25 25 24
30 30 30 31 30 30 29 29 28 28 28 27 27 27 27 26 26 26 26 26 26 26 26 27 27 28 28 28 29 30 30 30 31 31 31 31 31 32 33 34 35 35 34 33 32 32 32 32 32 32 32 31 30 28 27 26 25 25 25 25 25 25 25 25 24 24 24 23 23
32 32 32 32 31 31 30 30 29 29 28 28 28 27 27 27 27 27 27 26 26 26 27 27 27 27 27 28 29 29 30 30 30 30 30 30 30 31 32 34 35 35 34 33 32 32 32 32 33 32 31 29 28 26 26 25 25 25 25 25 25 25 25 25 24 24 23 23 23
34 34 33 33 32 31 31 30 30 30 29 29 28 28 28 27 27 27 27 26 26 26 27 27 26 26 27 27 28 29 30 30 30 30 29 29 29 30 32 34 35 35 34 32 32 32 32 32 33 32 31 28 26 25 25 25 25 25 25 25 25 25 25 25 24 24 24 24 24
35 35 34 33 32 31 30 30 30 30 30 29 29 28 28 27 27 26 26 26 26 26 26 26 26 26 26 27 27 28 30 30 30 30 29 29 29 30 32 34 34 34 33 32 31 31 32 32 32 32 30 27 26 25 25 25 25 25 25 25 25 26 26 26 25 25 25 24 24
36 36 35 34 33 32 30 30 29 30 30 29 29 28 27 27 26 26 26 25 26 26 27 26 26 26 26 27 28 29 29 30 30 30 29 29 29 30 32 33 34 34 33 32 31 32 32 32 32 31 29 26 26 25 25 25 25 25 25 26 26 26 26 26 26 26 25 25 24
36 36 36 35 34 32 31 30 29 29 29 29 28 27 26 26 26 26 26 25 26 27 27 27 26 26 26 27 28 28 29 29 29 29 29 29 29 30 31 33 34 34 33 32 31 32 32 32 32 30 28 26 26 26 26 26 26 26 26 26 27 27 27 27 26 26 26 25 24
35 36 36 36 35 33 32 31 30 29 29 28 28 27 26 25 25 25 25 25 26 26 26 27 27 26 26 26 27 27 28 28 29 29 29 29 29 30 31 33 34 33 32 31 31 32 32 32 32 30 28 27 26 26 26 26 26 26 26 26 26 26 26 26 26 26 26 25 24
34 35 35 35 35 34 32 31 30 29 28 28 27 27 26 25 25 25 25 25 25 26 26 26 27 26 26 25 26 27 27 28 28 29 29 29 29 30 31 32 33 33 32 31 31 32 32 32 31 30 28 27 27 26 26 26 26 26 26 26 26 26 26 26 26 26 26 25 23
33 34 34 34 34 33 32 31 30 29 28 27 27 26 26 25 25 25 25 25 25 25 25 26 26 26 25 25 26 27 28 28 28 28 29 29 29 29 30 32 32 32 31 31 31 32 32 32 31 29 28 27 27 26 26 25 25 26 26 26 26 26 25 25 25 25 25 24 23
32 33 33 33 33 33 32 31 30 28 28 27 26 26 25 25 25 25 25 25 25 25 25 25 25 25 25 25 26 27 28 28 28 28 28 28 28 29 30 31 32 32 31 31 31 32 32 32 31 29 28 27 27 26 26 25 25 26 27 27 26 26 25 24 24 24 24 23 22
Wind_Direction
268 267 265 264 264 263 262 262 261 260 259 258 258 258 259 258 258 258 259 260 260 261 262 262 262 263 263 263 263 262 261 258 253 249 247 246 247 249 251 252 251 249 247 245 244 243 243 244 244 245 247 248 252 255 258 259 259 259 258 258 259 259 260 260 261 262 263 265 267
272 270 269 267 266 265 264 264 263 261 260 259 259 259 260 260 260 261 261 262 263 263 264 264 265 265 266 266 265 265 263 260 255 251 248 247 247 248 250 251 250 248 245 243 241 241 242 243 243 244 246 248 251 255 258 258 258 258 258 258 259 259 259 260 261 262 263 264 266
276 274 272 270 268 267 266 265 265 264 263 261 260 260 260 261 262 263 263 264 265 266 266 266 267 267 268 267 267 266 263 261 257 253 249 247 247 248 249 250 249 246 243 240 239 240 241 242 243 243 245 248 252 255 257 258 257 257 257 258 258 259 259 260 261 262 263 264 265
279 277 274 272 271 270 269 268 268 267 266 265 263 263 263 264 264 264 265 266 266 267 267 268 268 269 269 268 267 266 264 261 257 254 250 248 247 247 248 249 247 245 241 238 238 238 240 241 241 242 244 248 252 255 256 257 257 257 257 258 258 258 259 260 260 261 262 263 264
281 279 278 276 275 274 272 271 270 269 268 267 266 266 266 266 266 266 266 267 268 268 269 269 269 269 269 269 268 266 264 261 258 254 251 248 247 247 248 248 246 243 239 237 237 238 239 239 240 241 244 248 251 253 255 255 256 257 258 258 258 258 259 260 260 260 261 262 264
283 282 282 280 279 277 275 273 271 270 269 268 268 268 268 268 268 268 269 269 270 271 271 270 270 270 270 269 268 267 264 261 258 254 251 249 247 247 247 246 244 241 238 236 236 237 237 237 238 240 243 247 250 252 253 254 255 256 257 258 258 259 259 259 260 260 261 262 263
286 285 284 283 282 280 278 276 274 272 270 269 269 270 270 271 272 272 272 273 273 272 271 271 270 270 270 269 268 267 264 262 258 255 252 250 248 247 247 245 242 239 237 236 236 236 236 236 236 239 243 246 248 250 251 252 254 256 257 258 259 259 260 260 260 260 260 261 262
289 288 288 287 286 285 283 281 278 275 273 272 272 273 274 275 275 275 275 274 273 272 272 271 271 271 271 270 269 267 265 263 260 257 253 250 248 247 246 245 241 238 236 235 235 235 235 234 235 238 242 245 247 249 250 251 253 255 257 259 260 260 261 261 260 260 260 261 262
293 293 293 293 291 290 288 286 283 280 278 277 277 278 277 277 276 276 275 274 274 273 273 272 272 272 271 270 269 268 266 264 262 259 255 252 249 247 246 244 240 237 236 235 235 234 233 233 235 238 241 244 247 249 250 251 253 255 257 258 260 260 261 261 260 260 260 260 262
299 299 298 297 295 294 292 289 286 284 282 281 281 280 279 278 277 276 275 275 274 274 273 273 272 272 271 270 269 268 266 264 262 260 257 253 250 248 246 243 240 237 236 236 235 233 232 232 235 238 241 243 246 248 250 251 253 255 256 258 259 260 260 260 260 260 260 260 262
309 307 304 301 300 297 294 291 289 287 285 283 283 282 281 280 279 278 277 276 275 274 274 274 273 272 272 271 270 269 267 265 263 261 258 254 251 248 246 243 241 238 237 237 235 233 231 232 235 238 240 243 245 247 249 251 252 254 256 258 259 259 259 258 258 259 260 261 262
320 316 313 310 307 303 298 294 292 289 287 286 285 285 284 283 282 281 280 278 277 277 276 276 274 274 273 272 271 269 268 266 263 261 258 254 251 248 246 243 241 239 238 237 235 232 231 233 235 238 240 242 244 246 248 250 252 254 256 258 259 259 258 257 257 258 260 262 263
329 326 323 320 317 311 305 300 297 294 292 290 289 288 287 286 285 283 282 281 281 280 279 277 276 275 274 273 272 270 268 266 263 260 257 254 251 248 245 243 240 238 237 236 233 232 232 234 236 238 239 241 243 245 247 249 251 254 256 259 260 259 258 257 257 258 259 261 263
333 332 330 328 326 321 315 309 305 301 298 296 295 294 292 290 289 287 286 285 284 283 281 279 278 276 275 273 272 270 268 265 262 259 256 253 250 248 245 243 240 238 236 234 232 231 232 234 236 237 238 240 243 245 247 249 251 254 256 259 260 260 259 258 258 258 259 260 262
335 335 336 336 335 334 330 324 318 312 307 304 303 302 300 297 295 292 290 288 287 285 282 281 279 277 275 273 271 269 266 264 261 259 256 253 250 247 245 242 240 237 235 233 232 232 233 235 236 236 238 240 243 245 247 249 252 254 256 258 260 260 259 258 258 258 258 260 261
340 341 342 345 348 350 350 346 340 334 327 321 319 314 310 306 302 297 293 290 288 285 283 281 279 277 273 270 268 266 264 262 260 258 256 253 250 247 245 242 239 236 234 232 232 233 234 235 235 236 237 239 242 245 247 249 252 254 256 258 259 260 259 258 258 258 259 260 261
347 347 348 349 352 355 357 355 351 346 342 338 333 324 315 309 304 298 292 288 285 283 281 279 277 274 271 268 266 264 263 262 260 258 256 253 251 248 245 242 239 236 234 233 233 233 234 234 234 235 237 239 242 245 247 250 252 254 256 258 259 259 258 258 258 258 259 260 262
344 341 338 337 337 338 340 339 334 330 327 325 322 318 313 307 302 297 289 283 278 276 274 274 273 271 269 268 267 265 263 262 261 259 257 254 251 248 245 242 239 236 235 234 234 233 233 233 234 235 237 239 242 245 248 250 252 254 256 258 258 258 258 258 258 258 259 260 262
333 330 327 325 324 323 322 320 315 310 307 306 306 306 306 305 302 296 286 277 272 270 270 270 270 269 269 269 268 266 265 264 263 261 259 256 252 248 245 241 238 236 235 235 234 233 233 233 233 235 237 240 242 245 248 250 252 253 255 257 258 258 258 257 258 258 259 260 262
329 327 325 323 322 320 317 312 308 303 299 298 297 297 298 299 298 294 285 275 271 269 269 269 269 269 269 269 269 268 266 265 264 263 260 256 252 248 243 240 237 235 235 235 234 233 232 232 232 234 237 240 243 246 248 250 251 253 255 256 257 258 258 258 258 258 259 260 261
329 327 325 324 322 320 317 313 308 303 299 297 295 295 295 295 294 292 287 279 274 271 270 270 270 270 270 270 270 269 268 266 265 263 261 257 252 247 242 238 236 235 235 235 233 232 230 230 231 234 237 240 244 246 248 250 251 252 254 256 257 258 258 258 258 258 258 259 261
327 325 323 321 320 319 317 314 309 304 300 297 296 294 294 293 292 290 287 282 277 274 273 272 272 271 271 271 271 271 269 267 265 263 260 257 251 245 240 237 235 235 235 234 232 230 229 229 231 233 237 241 244 247 249 250 250 252 253 255 256 257 258 258 258 258 259 259 260
324 322 320 318 318 317 315 313 309 305 301 299 296 295 294 293 292 291 287 284 280 278 276 275 274 273 272 272 272 271 269 266 264 262 258 254 249 244 239 235 234 234 234 234 232 229 228 228 230 233 237 241 244 247 248 249 250 251 253 255 256 257 258 258 258 258 259 260 260
322 319 318 316 315 314 313 311 308 306 303 301 299 297 296 295 294 292 289 285 282 280 278 276 275 274 274 273 272 270 267 264 261 258 255 251 247 242 238 235 233 233 234 234 232 229 227 227 229 233 237 241 245 247 248 249 249 250 252 254 256 257 258 258 258 259 259 260 261
319 317 316 315 314 312 311 309 308 307 305 303 301 300 298 297 295 292 289 286 283 280 279 277 276 275 274 272 270 268 264 261 258 255 252 249 245 241 237 234 233 233 233 233 231 229 227 227 230 233 238 242 245 247 248 248 249 250 252 254 255 256 257 258 259 259 259 260 261
317 316 315 314 312 311 310 309 308 307 305 304 302 300 299 297 294 291 288 285 283 281 279 278 277 275 273 271 268 265 261 259 256 253 251 248 245 240 236 234 233 233 233 232 230 228 226 228 230 234 239 243 245 247 247 248 248 249 251 253 254 256 257 258 259 260 260 261 262
315 314 313 312 310 310 309 308 307 306 305 303 302 300 298 296 293 290 288 285 283 280 278 276 274 272 270 267 264 261 258 256 254 253 251 248 245 240 236 234 233 233 233 232 230 227 226 228 231 235 239 243 245 247 247 247 248 248 250 252 253 255 256 258 259 261 262 263 264
313 312 311 310 309 309 308 308 307 306 305 304 302 299 297 294 292 289 287 284 281 278 274 271 269 268 265 263 260 258 256 255 254 252 251 249 245 241 237 235 234 233 233 232 229 227 226 228 232 236 240 243 245 246 246 246 246 247 249 250 252 254 256 259 260 262 263 264 265
311 310 309 308 308 307 307 307 307 306 305 303 301 299 296 294 292 289 286 283 279 275 271 268 265 263 261 260 259 258 257 255 254 252 251 248 245 241 238 235 234 233 232 230 228 226 226 228 232 237 241 244 245 245 244 244 245 246 248 250 252 254 257 259 261 262 263 264 266
309 308 307 307 306 306 306 306 306 305 304 302 300 298 296 294 291 288 285 282 278 275 271 267 265 263 262 261 260 259 258 257 255 253 250 248 245 241 237 235 233 232 231 229 226 224 226 228 233 237 241 244 245 245 244 243 243 245 247 249 252 254 256 258 260 261 262 264 265
311 309 308 307 306 305 306 306 305 304 302 301 299 297 295 292 290 287 284 281 278 275 271 268 266 265 264 262 261 260 259 258 256 253 251 248 245 241 238 234 233 231 229 226 224 224 225 229 233 237 241 244 246 246 244 243 243 245 247 249 252 254 256 258 260 261 263 264 266
316 314 312 310 309 308 307 306 305 304 302 300 298 295 293 291 289 286 283 280 278 275 273 270 268 267 265 263 262 261 260 259 257 254 252 249 246 242 238 234 232 230 227 224 223 223 225 229 232 236 239 242 244 245 245 245 245 247 250 252 255 257 259 261 262 264 265 267 269
323 321 319 317 315 313 311 308 306 304 302 299 297 295 293 291 289 287 284 282 279 277 275 273 272 270 268 265 263 262 260 259 257 256 253 250 246 242 238 234 231 228 226 223 222 223 225 228 232 236 237 236 237 240 244 247 249 251 253 256 259 261 263 264 265 267 268 269 269
328 327 325 323 321 318 314 311 308 305 302 299 297 295 294 292 291 288 286 284 281 279 277 274 273 271 269 266 264 262 260 259 257 255 253 250 246 241 237 233 230 227 224 222 222 223 225 228 232 235 237 234 231 233 239 245 248 251 254 257 260 262 264 265 267 268 268 269 269
329 329 327 326 324 321 317 313 309 305 302 299 297 296 295 293 291 289 287 284 281 278 276 273 271 269 266 264 261 259 258 257 255 254 252 249 245 240 236 232 229 226 223 222 221 222 225 228 232 235 235 232 230 231 236 241 245 248 252 255 258 260 262 264 265 266 267 268 268
328 328 327 326 325 322 319 314 310 306 302 300 298 297 296 294 291 289 285 282 279 276 274 272 269 267 264 261 259 256 255 254 253 252 251 248 244 239 234 231 227 225 223 221 221 222 225 228 231 233 232 229 228 230 234 237 241 245 249 252 254 257 259 261 263 265 266 267 268
326 327 326 326 325 323 320 316 311 307 304 301 299 297 295 293 290 287 283 280 277 274 273 270 268 266 264 262 260 257 255 253 252 251 250 247 243 238 233 229 226 224 222 221 221 222 225 228 231 232 230 227 227 229 233 236 239 242 245 248 252 254 257 259 261 264 266 267 267
324 324 325 324 324 322 320 317 312 308 305 302 299 297 294 292 289 285 282 278 276 274 273 270 268 267 265 263 262 260 258 255 253 250 249 247 243 237 232 228 225 223 221 220 221 222 225 228 230 231 229 226 227 229 232 234 237 240 243 247 250 253 255 257 260 262 265 267 268
320 321 321 322 322 321 319 317 313 309 305 302 298 295 293 290 288 285 281 278 275 274 272 271 269 267 265 263 262 260 258 256 253 251 248 246 242 237 231 227 224 222 221 220 220 222 225 228 230 231 229 226 228 230 231 233 236 239 243 246 248 251 254 256 259 261 264 267 268
316 317 318 319 320 319 318 316 313 309 305 300 296 293 291 289 287 284 280 277 274 272 271 270 268 266 264 262 260 259 257 255 253 251 248 246 242 237 231 226 224 222 220 219 220 222 224 228 230 229 227 226 228 230 232 233 235 239 242 245 247 249 252 256 259 262 264 267 268
312 313 314 316 317 317 317 315 313 309 304 299 295 292 290 288 285 282 278 276 274 272 270 268 267 264 262 260 258 257 256 254 252 251 249 246 242 236 230 225 223 221 219 218 219 221 224 228 230 228 226 226 229 230 231 232 234 238 242 244 246 248 251 254 258 261 264 267 269
Height
1450 1450 1449 1449 1448 1448 1448 1447 1448 1448 1448 1448 1448 1447 1447 1447 1448 1448 1448 1449 1449 1450 1450 1451 1452 1452 1454 1455 1455 1457 1459 1460 1462 1463 1465 1465 1466 1466 1468 1469 1470 1470 1471 1472 1472 1473 1474 1474 1475 1475 1475 1475 1476 1477 1477 1477 1477 1477 1477 1477 1477 1477 1477 1477 1477 1477 1477 1477 1476
1448 1447 1447 1447 1446 1446 1445 1445 1445 1445 1445 1445 1445 1445 1445 1445 1445 1446 1446 1446 1447 1447 1448 1449 1449 1450 1451 1452 1453 1454 1456 1457 1459 1460 1461 1462 1463 1464 1465 1465 1466 1467 1468 1469 1470 1470 1471 1471 1472 1472 1472 1473 1474 1474 1475 1475 1475 1475 1475 1475 1475 1475 1475 1475 1475 1475 1475 1475 1475
1445 1445 1445 1444 1444 1443 1443 1442 1442 1442 1443 1443 1443 1443 1443 1442 1443 1443 1444 1444 1444 1445 1446 1446 1447 1447 1448 1449 1450 1451 1452 1454 1455 1457 1458 1459 1460 1460 1461 1462 1463 1465 1465 1466 1467 1467 1468 1469 1469 1469 1470 1470 1471 1472 1472 1472 1472 1473 1473 1473 1473 1473 1473 1473 1472 1473 1472 1472 1472
1443 1443 1442 1441 1441 1440 1440 1440 1440 1440 1440 1440 1440 1440 1440 1440 1440 1441 1441 1442 1442 1443 1443 1444 1444 1445 1445 1446 1447 1448 1449 1450 1452 1453 1455 1455 1456 1457 1458 1460 1460 1461 1462 1463 1464 1465 1465 1466 1466 1467 1467 1468 1469 1469 1470 1470 1470 1470 1470 1470 1471 1471 1470 1470 1470 1470 1470 1470 1470
1441 1440 1439 1439 1438 1438 1438 1438 1438 1437 1438 1438 1438 1437 1437 1437 1438 1438 1439 1439 1440 1440 1440 1441 1441 1442 1443 1444 1444 1445 1446 1447 1448 1450 1451 1452 1453 1454 1455 1456 1458 1458 1459 1460 1461 1462 1462 1463 1463 1464 1465 1465 1466 1466 1467 1467 1468 1468 1468 1468 1468 1468 1468 1468 1468 1468 1468 1468 1468
1438 1438 1437 1436 1436 1436 1436 1436 1436 1435 1435 1435 1435 1435 1434 1435 1435 1435 1436 1436 1437 1437 1438 1439 1439 1440 1440 1441 1441 1442 1443 1444 1445 1446 1447 1449 1450 1451 1452 1454 1455 1455 1456 1457 1458 1459 1460 1460 1460 1461 1462 1463 1463 1464 1465 1465 1465 1465 1466 1466 1466 1466 1466 1466 1466 1465 1465 1465 1465
1437 1436 1435 1435 1435 1435 1434 1434 1434 1434 1434 1433 1432 1432 1432 1432 1433 1433 1434 1435 1435 1435 1435 1436 1436 1437 1437 1438 1439 1439 1440 1440 1441 1443 1444 1445 1447 1448 1449 1450 1451 1452 1453 1454 1455 1456 1457 1457 1458 1458 1459 1460 1460 1461 1462 1463 1463 1463 1463 1463 1463 1464 1463 1463 1463 1463 1463 1463 1463
1435 1434 1434 1433 1433 1433 1433 1433 1433 1433 1432 1431 1430 1430 1430 1431 1431 1432 1432 1433 1433 1433 1433 1433 1434 1434 1435 1435 1436 1436 1437 1438 1439 1440 1441 1443 1444 1445 1446 1448 1449 1450 1450 1451 1452 1453 1454 1455 1455 1455 1456 1457 1458 1459 1460 1460 1460 1461 1461 1461 1461 1461 1461 1461 1461 1461 1461 1461 1461
1433 1433 1432 1432 1431 1431 1431 1431 1431 1431 1430 1430 1429 1429 1429 1429 1430 1430 1430 1430 1430 1430 1430 1431 1431 1432 1432 1432 1433 1434 1434 1435 1436 1437 1438 1440 1441 1443 1444 1445 1445 1446 1447 1448 1449 1450 1451 1452 1452 1453 1454 1455 1455 1456 1457 1458 1458 1458 1458 1459 1459 1459 1459 1459 1459 1459 1459 1459 1459
1432 1431 1431 1430 1430 1430 1429 1429 1429 1429 1428 1428 1428 1428 1428 1428 1428 1428 1428 1428 1428 1428 1428 1428 1429 1429 1430 1430 1430 1431 1432 1433 1434 1435 1436 1437 1439 1440 1441 1441 1442 1443 1444 1445 1446 1447 1448 1449 1450 1450 1451 1452 1453 1454 1455 1455 1455 1456 1456 1456 1456 1456 1456 1456 1456 1456 1456 1456 1456
1430 1429 1429 1428 1428 1428 1427 1427 1427 1427 1427 1426 1426 1426 1426 1426 1426 1426 1426 1427 1426 1426 1426 1426 1427 1427 1427 1427 1428 1429 1429 1430 1431 1432 1433 1435 1436 1437 1438 1439 1440 1440 1441 1442 1443 1445 1445 1446 1447 1448 1449 1450 1451 1451 1452 1452 1453 1453 1453 1454 1454 1454 1454 1454 1454 1454 1454 1454 1454
1428 1427 1427 1426 1426 1425 1425 1425 1425 1425 1425 1425 1425 1425 1425 1424 1424 1425 1425 1425 1425 1424 1424 1424 1425 1425 1425 1425 1425 1426 1427 1428 1429 1430 1430 1431 1433 1434 1435 1436 1437 1437 1438 1439 1440 1441 1442 1443 1444 1445 1446 1447 1448 1449 1449 1450 1450 1450 1450 1451 1451 1451 1451 1451 1452 1452 1452 1452 1452
1426 1425 1425 1424 1424 1423 1423 1423 1423 1423 1423 1423 1423 1423 1423 1423 1423 1423 1423 1422 1422 1422 1422 1422 1422 1422 1423 1423 1423 1424 1424 1425 1426 1427 1427 1428 1429 1430 1432 1433 1434 1435 1435 1436 1438 1439 1439 1440 1441 1443 1444 1445 1445 1446 1447 1447 1448 1448 1448 1448 1449 1449 1449 1449 1450 1450 1450 1450 1450
1425 1424 1423 1422 1422 1421 1421 1421 1421 1421 1421 1421 1421 1421 1421 1421 1421 1421 1420 1420 1420 1420 1420 1420 1420 1420 1420 1420 1420 1421 1421 1422 1423 1423 1424 1425 1426 1427 1429 1430 1431 1432 1433 1434 1435 1436 1436 1438 1439 1440 1441 1442 1443 1444 1445 1445 1445 1445 1445 1446 1446 1446 1447 1447 1447 1448 1448 1447 1447
1424 1423 1422 1421 1420 1420 1419 1419 1419 1419 1419 1419 1419 1420 1420 1420 1420 1419 1419 1418 1418 1418 1418 1418 1417 1417 1417 1417 1418 1418 1418 1419 1419 1420 1420 1421 1422 1424 1425 1427 1428 1429 1430 1431 1432 1433 1434 1435 1436 1438 1439 1440 1440 1441 1442 1442 1443 1443 1443 1443 1444 1444 1445 1445 1445 1445 1445 1445 1445
1423 1422 1421 1420 1419 1419 1418 1418 1418 1418 1418 1417 1418 1418 1418 1418 1418 1418 1417 1416 1416 1416 1415 1415 1415 1415 1415 1415 1415 1415 1415 1415 1416 1416 1417 1418 1419 1421 1422 1424 1425 1426 1428 1429 1430 1430 1432 1433 1434 1435 1436 1437 1438 1439 1439 1440 1440 1440 1441 1441 1441 1442 1442 1443 1443 1443 1443 1443 1443
1423 1422 1421 1420 1419 1418 1417 1416 1417 1417 1417 1417 1417 1417 1417 1417 1416 1415 1415 1414 1414 1413 1412 1412 1412 1412 1411 1411 1411 1411 1412 1412 1413 1413 1414 1415 1416 1418 1420 1421 1423 1424 1425 1426 1427 1428 1429 1430 1432 1433 1434 1435 1435 1436 1437 1437 1437 1438 1438 1439 1439 1440 1440 1440 1441 1441 1441 1440 1440
1422 1421 1420 1420 1418 1417 1415 1415 1415 1415 1415 1415 1415 1415 1415 1414 1414 1412 1411 1410 1410 1409 1409 1409 1408 1408 1408 1408 1408 1408 1409 1409 1409 1410 1411 1412 1414 1415 1417 1419 1420 1421 1422 1423 1424 1425 1426 1428 1429 1430 1431 1432 1433 1434 1434 1435 1435 1435 1436 1436 1437 1437 1438 1438 1438 1439 1439 1438 1438
1421 1420 1419 1418 1417 1415 1414 1413 1412 1412 1412 1412 1412 1411 1411 1410 1410 1409 1407 1406 1405 1405 1405 1405 1405 1405 1405 1405 1405 1405 1405 1406 1406 1407 1408 1410 1411 1413 1415 1416 1417 1419 1419 1420 1421 1423 1424 1425 1427 1428 1429 1430 1430 1431 1431 1432 1432 1433 1433 1434 1434 1435 1435 1436 1436 1436 1436 1436 1436
1419 1418 1417 1416 1415 1414 1413 1411 1410 1410 1409 1408 1408 1407 1407 1406 1405 1404 1403 1402 1402 1402 1402 1402 1401 1401 1401 1402 1402 1402 1402 1403 1404 1405 1406 1407 1409 1410 1411 1413 1414 1415 1416 1417 1419 1420 1421 1423 1424 1425 1426 1427 1428 1428 1429 1430 1430 1430 1431 1431 1432 1433 1433 1434 1434 1434 1434 1434 1434
1417 1416 1415 1414 1413 1412 1411 1410 1409 1408 1407 1406 1405 1405 1404 1403 1401 1400 1400 1399 1399 1399 1399 1398 1398 1399 1399 1399 1399 1400 1400 1401 1401 1402 1403 1404 1405 1406 1408 1410 1411 1412 1413 1415 1416 1417 1419 1420 1421 1422 1423 1424 1425 1426 1426 1427 1428 1428 1429 1429 1430 1430 1431 1431 1432 1432 1432 1432 1432
1415 1414 1413 1412 1411 1410 1409 1408 1407 1406 1405 1405 1404 1403 1402 1400 1399 1398 1397 1397 1397 1396 1396 1396 1396 1396 1396 1397 1397 1397 1398 1398 1399 1399 1400 1401 1402 1404 1405 1407 1408 1409 1410 1411 1413 1414 1416 1417 1419 1420 1421 1422 1423 1423 1424 1425 1425 1426 1426 1427 1427 1428 1429 1429 1429 1429 1429 1429 1429
1414 1412 1411 1410 1409 1408 1407 1406 1405 1404 1403 1402 1401 1400 1400 1398 1397 1396 1396 1395 1395 1394 1394 1394 1394 1394 1394 1395 1395 1395 1395 1396 1396 1396 1397 1398 1399 1400 1402 1404 1405 1406 1407 1408 1410 1411 1413 1415 1416 1417 1418 1419 1420 1421 1422 1422 1423 1424 1424 1425 1425 1426 1426 1427 1427 1427 1427 1427 1427
1412 1410 1410 1408 1407 1406 1405 1404 1403 1402 1401 1400 1399 1398 1397 1396 1395 1395 1394 1393 1392 1392 1392 1391 1391 1391 1392 1392 1393 1393 1393 1393 1393 1394 1394 1395 1396 1397 1399 1400 1401 1403 1404 1405 1407 1409 1411 1412 1414 1415 1416 1417 1418 1419 1420 1420 1421 1421 1422 1422 1423 1424 1424 1424 1425 1425 1425 1425 1425
1410 1409 1407 1406 1405 1404 1403 1402 1401 1400 1399 1398 1397 1396 1395 1394 1393 1393 1392 1391 1390 1390 1390 1390 1389 1390 1390 1390 1390 1390 1390 1391 1391 1391 1392 1393 1394 1395 1396 1397 1399 1400 1401 1403 1405 1407 1409 1410 1411 1413 1414 1415 1416 1417 1417 1418 1418 1419 1420 1420 1421 1421 1422 1422 1422 1422 1422 1422 1422
1408 1407 1405 1404 1403 1402 1401 1400 1399 1398 1397 1396 1395 1394 1393 1392 1391 1390 1390 1389 1388 1388 1388 1388 1387 1387 1387 1388 1388 1388 1388 1388 1388 1389 1390 1390 1391 1392 1393 1395 1395 1397 1399 1401 1403 1405 1407 1409 1410 1411 1412 1413 1414 1414 1415 1415 1416 1417 1418 1418 1419 1419 1419 1420 1420 1420 1420 1420 1420
1406 1405 1403 1402 1401 1400 1399 1398 1397 1395 1395 1393 1392 1391 1390 1390 1389 1388 1387 1387 1386 1386 1386 1385 1385 1385 1385 1385 1385 1385 1385 1385 1386 1387 1387 1388 1389 1390 1391 1392 1393 1394 1396 1399 1401 1404 1405 1407 1408 1409 1410 1410 1411 1412 1413 1413 1414 1415 1415 1416 1416 1417 1417 1417 1417 1418 1418 1418 1418
1404 1402 1401 1400 1399 1398 1396 1395 1394 1393 1392 1391 1390 1389 1388 1387 1386 1386 1385 1385 1384 1384 1384 1383 1383 1383 1383 1382 1382 1382 1383 1383 1384 1385 1385 1386 1387 1388 1389 1390 1391 1392 1395 1397 1400 1402 1404 1405 1406 1407 1407 1408 1409 1410 1411 1411 1412 1413 1413 1414 1414 1414 1415 1415 1415 1415 1415 1415 1416
1401 1400 1399 1398 1396 1395 1394 1393 1392 1391 1390 1389 1388 1387 1386 1385 1384 1384 1383 1382 1382 1381 1381 1381 1381 1380 1380 1380 1380 1380 1380 1381 1382 1382 1383 1384 1384 1385 1386 1387 1389 1390 1393 1396 1398 1400 1402 1403 1404 1405 1405 1406 1407 1408 1409 1409 1410 1410 1411 1411 1412 1412 1412 1413 1413 1413 1413 1413 1414
1399 1398 1396 1395 1394 1393 1392 1391 1390 1389 1388 1387 1385 1384 1383 1383 1382 1381 1380 1380 1380 1379 1379 1379 1378 1378 1378 1377 1378 1378 1378 1379 1380 1380 1381 1381 1382 1383 1384 1385 1386 1388 1391 1394 1396 1398 1400 1401 1402 1403 1403 1404 1405 1405 1406 1407 1407 1408 1409 1409 1410 1410 1410 1411 1411 1411 1411 1411 1411
1397 1396 1395 1393 1392 1391 1390 1389 1388 1386 1385 1384 1383 1382 1381 1380 1380 1379 1378 1378 1377 1377 1377 1377 1376 1376 1375 1376 1376 1376 1376 1376 1377 1378 1378 1379 1380 1380 1382 1383 1384 1386 1389 1392 1394 1396 1398 1399 1400 1401 1401 1402 1402 1403 1404 1405 1405 1406 1406 1407 1407 1408 1408 1409 1409 1409 1409 1409 1410
1395 1394 1393 1391 1390 1389 1387 1386 1385 1384 1383 1382 1381 1380 1379 1378 1377 1377 1376 1376 1375 1375 1375 1374 1374 1374 1374 1374 1374 1374 1374 1374 1375 1375 1376 1377 1378 1379 1380 1381 1382 1385 1387 1390 1392 1394 1395 1397 1398 1399 1400 1400 1400 1401 1401 1402 1403 1404 1404 1405 1405 1405 1406 1406 1406 1407 1407 1407 1407
1394 1392 1391 1389 1388 1387 1385 1384 1383 1382 1380 1380 1378 1377 1376 1375 1375 1375 1374 1374 1374 1373 1373 1372 1372 1372 1372 1372 1372 1372 1372 1372 1372 1373 1374 1375 1376 1377 1378 1379 1380 1383 1385 1388 1390 1392 1393 1395 1396 1397 1398 1399 1399 1399 1400 1400 1401 1401 1402 1402 1403 1403 1404 1404 1404 1404 1405 1405 1405
1392 1390 1389 1387 1386 1385 1383 1382 1381 1380 1378 1377 1376 1375 1374 1374 1373 1372 1372 1371 1371 1371 1370 1370 1370 1370 1370 1370 1370 1370 1370 1370 1370 1371 1372 1373 1374 1375 1376 1377 1378 1380 1383 1386 1388 1390 1391 1393 1394 1395 1396 1397 1398 1398 1398 1399 1399 1399 1400 1400 1401 1401 1401 1402 1402 1402 1403 1403 1403
1390 1389 1387 1385 1384 1383 1381 1380 1378 1377 1375 1375 1373 1373 1372 1371 1370 1370 1370 1370 1369 1369 1368 1368 1368 1368 1368 1368 1368 1368 1368 1368 1368 1369 1370 1370 1371 1372 1373 1375 1376 1379 1381 1384 1386 1388 1389 1390 1392 1393 1394 1395 1396 1396 1396 1397 1397 1398 1398 1398 1399 1399 1400 1400 1400 1400 1400 1401 1401
1389 1387 1385 1384 1382 1380 1379 1377 1376 1375 1373 1372 1371 1370 1370 1369 1368 1367 1367 1367 1367 1366 1365 1365 1366 1366 1365 1365 1365 1365 1365 1366 1366 1367 1367 1368 1369 1370 1371 1372 1374 1377 1380 1382 1384 1386 1387 1389 1390 1391 1392 1393 1394 1394 1395 1395 1395 1396 1396 1397 1397 1397 1398 1398 1398 1398 1398 1399 1399
1387 1385 1383 1382 1380 1378 1377 1375 1374 1372 1371 1370 1369 1368 1367 1366 1365 1365 1365 1365 1364 1364 1363 1363 1363 1363 1363 1363 1363 1363 1363 1364 1364 1365 1365 1366 1367 1368 1369 1370 1373 1375 1378 1380 1382 1384 1385 1387 1388 1389 1390 1391 1391 1392 1392 1393 1394 1394 1395 1395 1395 1395 1396 1396 1396 1396 1396 1396 1396
1385 1384 1382 1380 1378 1376 1375 1373 1371 1370 1369 1368 1367 1366 1365 1364 1363 1363 1362 1362 1362 1361 1361 1361 1361 1361 1361 1361 1361 1361 1362 1362 1362 1363 1363 1364 1365 1365 1367 1369 1370 1373 1375 1378 1380 1382 1383 1385 1386 1387 1388 1389 1389 1390 1390 1391 1391 1392 1393 1393 1393 1394 1394 1394 1394 1394 1394 1394 1394
1384 1382 1380 1378 1376 1375 1373 1371 1370 1368 1367 1366 1365 1364 1363 1362 1361 1360 1360 1360 1359 1359 1359 1359 1359 1359 1359 1360 1360 1360 1360 1360 1360 1361 1361 1362 1362 1364 1365 1367 1369 1371 1373 1376 1378 1380 1381 1383 1384 1385 1386 1387 1387 1388 1388 1389 1390 1390 1390 1391 1391 1391 1392 1392 1392 1392 1392 1392 1392
1381 1380 1378 1376 1375 1373 1371 1369 1368 1366 1365 1364 1363 1361 1360 1360 1359 1358 1358 1357 1357 1357 1357 1357 1357 1357 1357 1358 1358 1357 1357 1358 1358 1359 1359 1360 1361 1362 1364 1365 1367 1369 1371 1374 1375 1377 1379 1381 1382 1384 1385 1385 1385 1386 1386 1387 1388 1388 1389 1389 1389 1390 1390 1390 1390 1390 1390 1390 1390
1379 1377 1375 1374 1372 1371 1369 1367 1366 1365 1363 1362 1360 1360 1359 1358 1357 1356 1355 1355 1355 1355 1355 1355 1355 1355 1355 1355 1355 1355 1355 1356 1356 1356 1357 1358 1359 1360 1362 1363 1365 1367 1369 1371 1373 1375 1377 1379 1380 1381 1382 1383 1383 1384 1385 1385 1386 1386 1386 1387 1387 1388 1388 1388 1388 1388 1388 1388 1388